[[{"header":{"parameterUnit":"m.s-1","parameterCategory":1,"la1":30.2991,"la2":30.254,"lo1":-89.0895,"lo2":-89.0444,"dy":0.0017,"dx":0.0017,"nx":28,"ny":28,"refTime":"2024-05-22T09:00:00:Z","depth":0,"parameterNumber":2,"parameterNumberName":"U-component_of_WINDS"},"data":[0,0,0,0,0,0,0,0,0,0,0,0,0,0,0,0,0,0,0,0,0,0,0,0,0,0,0,0,0,0,0,0,0,0,0,0,0,0,0,0,0,0,0,0,0,0,0,0,0,0,0,0,0,0,0,0,0,0,-2.5611,-2.5612,0,-2.5704,-2.5706,-2.5707,-2.5716,-2.5715,-2.5715,-2.5714,-2.5811,-2.5814,-2.5818,0,0,0,0,0,0,0,0,0,0,0,0,0,-2.5443,-2.5446,-2.5611,-2.5612,-2.5613,-2.5704,-2.5706,-2.5707,-2.5717,-2.5715,-2.5714,-2.5713,-2.581,-2.5814,-2.5818,0,0,0,0,0,0,0,0,0,0,0,0,0,-2.5524,-2.5447,-2.5611,-2.5629,-2.5632,-2.5704,-2.5706,-2.5707,-2.5717,-2.5715,-2.5714,-2.5713,-2.5808,-2.5814,-2.5819,-2.588,0,0,-2.5835,-2.5837,0,0,0,0,0,0,0,0,-2.552,-2.5531,-2.5625,-2.5628,-2.5631,-2.5697,-2.5682,-2.5765,-2.5717,-2.5685,-2.5714,-2.5712,-2.5774,-2.5782,-2.5803,-2.5884,-2.5888,-2.5835,-2.5838,-2.5841,-2.5842,0,0,0,0,0,0,0,-2.5514,-2.5527,-2.5648,-2.5627,-2.563,-2.5633,-2.5643,-2.5698,-2.5736,-2.5687,-2.5688,-2.5699,-2.5776,-2.5798,-2.5805,-2.589,-2.5835,-2.584,-2.5843,-2.5845,-2.6026,-2.6028,0,0,0,0,0,0,-2.5505,-2.5522,-2.5645,-2.5651,-2.5571,-2.5638,-2.5649,-2.5677,-2.5736,-2.5743,-2.57,-2.5699,-2.579,-2.5799,-2.5809,-2.5884,-2.584,-2.5845,-2.5848,-2.6024,-2.6026,-2.6028,0,0,0,0,0,0,-2.5501,-2.5516,-2.5641,-2.5587,-2.5603,-2.5642,-2.5674,-2.568,-2.5702,-2.5746,-2.5753,-2.5716,-2.5789,-2.5802,-2.5862,-2.5887,-2.5848,-2.5852,-2.6022,-2.6025,-2.6027,-2.6034,0,0,0,0,0,0,-2.5496,-2.5514,-2.5537,-2.5587,-2.5606,-2.5692,-2.5676,-2.5683,-2.5711,-2.5711,-2.5762,-2.5769,-2.5789,-2.5854,-2.5867,-2.5894,-2.5857,-2.602,-2.6024,-2.6027,-2.6032,-2.6037,-2.6041,0,0,0,0,0,-2.549,-2.5536,-2.5538,-2.5553,-2.5635,-2.5693,-2.5704,-2.5725,-2.5713,-2.5737,-2.5765,-2.5768,-2.5883,-2.586,-2.5875,-2.5904,-2.6019,-2.6023,-2.6026,-2.603,-2.6036,-2.604,0,0,0,0,0,0,-2.5489,-2.5543,-2.5546,-2.5609,-2.5646,-2.5695,-2.5725,-2.5731,-2.5773,-2.5771,-2.5796,-2.5808,-2.5867,-2.5892,-2.5866,-2.5966,-2.595,-2.5957,-2.5947,-2.5953,-2.5957,-2.595,-2.5861,0,0,0,0,0,-2.5495,-2.5538,-2.5583,-2.5634,-2.5653,-2.5686,-2.5712,-2.5725,-2.5765,-2.5781,-2.5814,-2.5853,-2.5898,-2.5927,-2.5971,-2.6036,-2.6047,-2.6063,-2.6067,-2.6071,-2.6076,-2.6112,-2.612,-2.6041,-2.6041,-2.6041,0,0,-2.551,-2.5545,-2.557,-2.5635,-2.5665,-2.5709,-2.5699,-2.5746,-2.5778,-2.5789,-2.5847,-2.5873,-2.5918,-2.5981,-2.601,-2.6003,-2.6101,-2.6076,-2.6078,-2.6082,-2.6117,-2.6124,-2.6131,-2.6043,-2.6043,-2.6042,0,0,-2.5559,-2.559,-2.5635,-2.5666,-2.5712,-2.5734,-2.5745,-2.5793,-2.581,-2.587,-2.5878,-2.5918,-2.5995,-2.6027,-2.6054,-2.6116,-2.612,-2.613,-2.6152,-2.6187,-2.6193,-2.6199,-2.622,-2.6228,-2.6135,-2.6135,-2.6135,0,-2.5571,-2.5636,-2.5658,-2.5704,-2.5733,-2.5744,-2.5791,-2.582,-2.5879,-2.5898,-2.589,-2.5987,-2.6018,-2.6088,-2.6104,-2.6125,-2.6138,-2.6123,-2.619,-2.6196,-2.6202,-2.6222,-2.623,-2.6136,-2.6136,-2.6136,-2.6136,0,-2.5649,-2.5695,-2.5726,-2.5781,-2.5814,-2.586,-2.5889,-2.592,-2.593,-2.5953,-2.6014,-2.6052,-2.6104,-2.6122,-2.6133,-2.6194,-2.6188,-2.6185,-2.6169,-2.621,-2.6229,-2.6238,-2.6137,-2.6137,-2.6136,-2.6136,0,0,-2.5698,-2.5765,-2.5777,-2.5802,-2.5854,-2.589,-2.5937,-2.5987,-2.6012,-2.6053,-2.6093,-2.6159,-2.6156,-2.6186,-2.6201,-2.6232,-2.6278,-2.6225,-2.6226,-2.6232,-2.6347,-2.6348,-2.6357,-2.6281,-2.6283,-2.6284,-2.6343,0,-2.5752,-2.5835,-2.5857,-2.5928,-2.597,-2.5982,-2.6023,-2.606,-2.6083,-2.6123,-2.6149,-2.6195,-2.6188,-2.6206,-2.6237,-2.6265,-2.6301,-2.6262,-2.6319,-2.6321,-2.6306,-2.6367,-2.6369,-2.6422,-2.6351,-2.6352,-2.6353,0,-2.5826,-2.5867,-2.5942,-2.5989,-2.6007,-2.6044,-2.6091,-2.6129,-2.6172,-2.6187,-2.6221,-2.6233,-2.6283,-2.6266,-2.6336,-2.6309,-2.6334,-2.6352,-2.6354,-2.6359,-2.6338,-2.6373,-2.644,-2.6447,-2.6366,-2.6365,-2.6364,0,-2.5853,-2.5927,-2.5982,-2.6003,-2.6059,-2.6085,-2.611,-2.6151,-2.618,-2.6222,-2.6241,-2.6289,-2.6315,-2.6352,-2.6377,-2.6362,-2.6445,-2.643,-2.6459,-2.6458,-2.6474,-2.6473,-2.6544,-2.6492,-2.6492,-2.6492,-2.6492,0,-2.591,-2.5955,-2.5994,-2.6028,-2.6079,-2.6104,-2.6154,-2.618,-2.6216,-2.6255,-2.6269,-2.6306,-2.6338,-2.6379,-2.6399,-2.6454,-2.6466,-2.6479,-2.6484,-2.6477,-2.6475,-2.6493,-2.649,-2.6494,-2.6494,-2.6493,-2.6493,0,-2.5948,-2.5976,-2.6036,-2.6085,-2.6098,-2.6134,-2.6175,-2.6209,-2.6233,-2.6282,-2.6295,-2.6333,-2.6382,-2.6411,-2.6473,-2.6487,-2.6547,-2.6551,-2.6532,-2.6534,-2.6561,-2.6558,-2.6646,-2.6658,-2.6599,-2.6599,-2.66,0,-2.5982,-2.6017,-2.6069,-2.6096,-2.6121,-2.6164,-2.6193,-2.622,-2.625,-2.6301,-2.6328,-2.6378,-2.6419,-2.6497,-2.6531,-2.6579,-2.6583,-2.6611,-2.659,-2.6582,-2.6582,-2.6579,-2.6583,-2.6613,-2.6614,-2.6614,-2.6615,0,-2.604,-2.6052,-2.6093,-2.6139,-2.6174,-2.6212,-2.625,-2.6271,-2.6304,-2.6338,-2.6387,-2.6419,-2.6483,-2.6532,-2.6583,-2.6609,-2.6618,-2.6621,-2.663,-2.6623,-2.6611,-2.6617,-2.6541,-2.6619,-2.6618,-2.6618,-2.6618,-2.6618,-2.6077,-2.6108,-2.6149,-2.6195,-2.6226,-2.6261,-2.6295,-2.6323,-2.6364,-2.6417,-2.6431,-2.6483,-2.6526,-2.6595,-2.6622,-2.6664,-2.666,-2.6673,-2.6676,-2.6679,-2.6679,-2.6605,-2.6674,-2.6674,-2.6674,-2.6674,-2.6674,0,-2.6134,-2.6161,-2.6203,-2.6255,-2.6291,-2.6295,-2.6338,-2.6368,-2.6413,-2.6452,-2.6492,-2.6549,-2.6597,-2.6635,-2.6684,-2.6711,-2.6716,-2.6723,-2.672,-2.6726,-2.6681,-2.6667,-2.6718,-2.6718,-2.6718,-2.6718,-2.6718,-2.6718,-2.6168,-2.6221,-2.6238,-2.6307,-2.6335,-2.6385,-2.6409,-2.6442,-2.6472,-2.6536,-2.6575,-2.6599,-2.6638,-2.669,-2.6734,-2.6744,-2.6762,-2.6768,-2.6778,-2.6734,-2.673,-2.6725,-2.6712,-2.6771,-2.6771,-2.682,-2.6821,-2.6821]},{"header":{"parameterUnit":"m.s-1","parameterCategory":1,"la1":30.2991,"la2":30.254,"lo1":-89.0895,"lo2":-89.0444,"dy":0.0017,"dx":0.0017,"nx":28,"ny":28,"refTime":"2024-05-22T09:00:00:Z","depth":0,"parameterNumber":3,"parameterNumberName":"V-component_of_WINDS"},"data":[0,0,0,0,0,0,0,0,0,0,0,0,0,0,0,0,0,0,0,0,0,0,0,0,0,0,0,0,0,0,0,0,0,0,0,0,0,0,0,0,0,0,0,0,0,0,0,0,0,0,0,0,0,0,0,0,0,0,4.1733,4.1733,0,4.174,4.174,4.174,4.17,4.1699,4.1698,4.1697,4.1703,4.1704,4.1705,0,0,0,0,0,0,0,0,0,0,0,0,0,4.1684,4.1685,4.1733,4.1733,4.1733,4.174,4.174,4.174,4.1701,4.1699,4.1698,4.1697,4.1703,4.1704,4.1706,0,0,0,0,0,0,0,0,0,0,0,0,0,4.1699,4.1685,4.1733,4.1714,4.1713,4.174,4.174,4.174,4.1701,4.1699,4.1698,4.1696,4.1702,4.1704,4.1706,4.1751,0,0,4.1711,4.1712,0,0,0,0,0,0,0,0,4.1699,4.1701,4.1717,4.1715,4.1714,4.1718,4.1725,4.1744,4.1701,4.1705,4.1697,4.1695,4.1709,4.171,4.1715,4.1751,4.1751,4.1711,4.1713,4.1713,4.1714,0,0,0,0,0,0,0,4.1698,4.1701,4.1736,4.1717,4.1715,4.1705,4.1705,4.1728,4.1717,4.1705,4.1702,4.1703,4.1708,4.1714,4.1715,4.1752,4.1711,4.1713,4.1714,4.1715,4.1824,4.1826,0,0,0,0,0,0,4.1699,4.17,4.1735,4.1736,4.1702,4.1707,4.1708,4.1718,4.1716,4.1714,4.1705,4.1702,4.1711,4.1713,4.1715,4.1767,4.1713,4.1715,4.1716,4.1823,4.1825,4.1827,0,0,0,0,0,0,4.1698,4.1703,4.1735,4.1717,4.1721,4.171,4.1722,4.1719,4.1725,4.1716,4.1714,4.1713,4.171,4.1713,4.1742,4.1767,4.1716,4.1718,4.182,4.1823,4.1826,4.1872,0,0,0,0,0,0,4.1697,4.1703,4.172,4.1718,4.1722,4.1762,4.1723,4.172,4.1728,4.1724,4.1723,4.1721,4.1709,4.174,4.1744,4.1768,4.1719,4.1818,4.1822,4.1825,4.1868,4.1876,4.1882,0,0,0,0,0,4.1695,4.1732,4.1721,4.1725,4.1743,4.1764,4.1766,4.1751,4.173,4.1747,4.1742,4.1721,4.1764,4.1743,4.1748,4.1773,4.1816,4.1821,4.1825,4.1865,4.1874,4.1882,0,0,0,0,0,0,4.1736,4.1731,4.1719,4.1756,4.1761,4.1757,4.1778,4.1762,4.1772,4.1767,4.1749,4.1749,4.1781,4.178,4.1757,4.1816,4.1786,4.1792,4.1815,4.1824,4.1831,4.183,4.172,0,0,0,0,0,4.175,4.1768,4.1762,4.1796,4.1799,4.1788,4.1797,4.1785,4.1789,4.1791,4.1787,4.1792,4.1806,4.1815,4.1828,4.1868,4.1867,4.1888,4.1895,4.1901,4.1905,4.1926,4.1934,4.184,4.184,4.184,0,0,4.1777,4.1777,4.1789,4.1804,4.1806,4.1824,4.179,4.1811,4.1824,4.1794,4.1821,4.1819,4.1823,4.1858,4.1873,4.1858,4.1931,4.1906,4.1911,4.1912,4.1931,4.194,4.1947,4.1843,4.1842,4.1842,0,0,4.1837,4.1839,4.1867,4.187,4.1874,4.1867,4.1874,4.1873,4.187,4.1898,4.1876,4.1891,4.1916,4.1919,4.1924,4.1986,4.1967,4.1991,4.2028,4.2048,4.2055,4.2062,4.2083,4.209,4.1996,4.1996,4.1996,0,4.187,4.1897,4.1883,4.1905,4.1912,4.1887,4.1914,4.1918,4.1926,4.1931,4.1914,4.1945,4.1946,4.1981,4.1996,4.2002,4.2008,4.199,4.2056,4.2062,4.2068,4.2087,4.2095,4.1999,4.1998,4.1998,4.1998,0,4.1937,4.1957,4.1979,4.1987,4.1997,4.2022,4.2011,4.2022,4.2011,4.2006,4.2034,4.2034,4.2046,4.2054,4.2043,4.2087,4.2078,4.2059,4.2028,4.208,4.2098,4.2105,4.2002,4.2002,4.2001,4.2,0,0,4.202,4.2022,4.203,4.2034,4.2037,4.2051,4.2076,4.2088,4.2097,4.2105,4.2123,4.2146,4.2128,4.2134,4.2123,4.2141,4.2189,4.212,4.212,4.2131,4.2237,4.225,4.2258,4.2178,4.2179,4.218,4.2236,0,4.2077,4.2118,4.2106,4.2147,4.2164,4.2141,4.2162,4.2166,4.2162,4.2176,4.2172,4.2187,4.2164,4.2167,4.2184,4.2179,4.2209,4.2176,4.2193,4.2194,4.2191,4.2268,4.2281,4.2334,4.2243,4.2244,4.2245,0,4.2148,4.2158,4.2201,4.2201,4.2208,4.2227,4.2237,4.2251,4.2256,4.2252,4.2259,4.2244,4.2267,4.2239,4.227,4.2247,4.2254,4.2253,4.2255,4.2254,4.2221,4.2267,4.2351,4.2358,4.2256,4.2256,4.2255,0,4.2202,4.2227,4.2255,4.2259,4.2261,4.2275,4.2276,4.2279,4.2287,4.2297,4.2302,4.2314,4.232,4.2329,4.2318,4.2299,4.2351,4.2321,4.2347,4.2347,4.2356,4.2356,4.244,4.2365,4.2365,4.2365,4.2364,0,4.2265,4.2291,4.2279,4.2296,4.2326,4.2312,4.2341,4.234,4.2343,4.2359,4.2341,4.2357,4.2342,4.2357,4.2349,4.2375,4.2378,4.2375,4.2372,4.2375,4.2375,4.2378,4.2373,4.2367,4.2366,4.2366,4.2366,0,4.2329,4.2322,4.2351,4.2352,4.2352,4.2374,4.2373,4.2389,4.2385,4.2406,4.241,4.2402,4.2418,4.2409,4.2425,4.242,4.2454,4.2447,4.2452,4.2449,4.2475,4.2472,4.2562,4.2572,4.2493,4.2493,4.2494,0,4.2369,4.2389,4.2391,4.2401,4.2404,4.242,4.2429,4.2417,4.2427,4.2434,4.2449,4.2463,4.2474,4.25,4.2496,4.2509,4.2501,4.2531,4.2502,4.2505,4.2499,4.2497,4.2498,4.2536,4.2537,4.2538,4.2539,0,4.2439,4.2435,4.2448,4.2461,4.2472,4.2481,4.2488,4.2498,4.2486,4.2498,4.2514,4.2523,4.254,4.2554,4.2565,4.2565,4.255,4.2549,4.2555,4.2557,4.2559,4.2557,4.2466,4.2546,4.2545,4.2545,4.2544,4.2544,4.2491,4.2507,4.2512,4.2527,4.2532,4.254,4.2554,4.2553,4.2566,4.2579,4.2572,4.2591,4.2595,4.2608,4.2611,4.2625,4.2613,4.2622,4.2624,4.2626,4.2629,4.2559,4.2627,4.2627,4.2627,4.2627,4.2627,0,4.2559,4.2561,4.2576,4.2587,4.2599,4.2586,4.2593,4.2604,4.2621,4.2627,4.2638,4.2657,4.2671,4.2669,4.2681,4.2693,4.2686,4.2697,4.2695,4.2695,4.264,4.2633,4.2702,4.2702,4.2702,4.2702,4.2702,4.2702,4.2596,4.2623,4.2619,4.2648,4.265,4.2669,4.2674,4.2681,4.2686,4.2708,4.2719,4.2718,4.2721,4.2733,4.2746,4.2744,4.2749,4.2762,4.2758,4.2706,4.2699,4.2692,4.2684,4.2763,4.2764,4.2811,4.2812,4.2812]}]]